This demonstration page uses our WeatherBlox Daily Observations layout. Learn more.

Left ArrowRight Arrow

39.12711, -84.51439

Hourly Observations for October 4, 2021

Temp ( °F °C ) Dew Point ( °F °C ) Humidity (%) Winds ( mph kmh ) Pressure ( in mb ) Visibility ( mi km ) Precip ( " mm )
12:23 am 00:23 Cloudy 66 18.9 65 18.3 96 96 SW 5 7 29.88 1012 10 16 0.00 0.00
12:31 am 00:31 Cloudy 66 18.9 65 18.3 96 96 SSW 5 7 29.88 1012 10 16 0.00 0.00
12:49 am 00:49 Cloudy 66 19 64 18 94 94 SSW 3 6 29.87 1012 10 16 0.00 0.00
12:53 am 00:53 Mostly Cloudy 66 18.9 65 18.3 96 96 SSW 5 7 29.87 1012 10 16 0.00 0.00
1:27 am 01:27 Mostly Cloudy 66 18.9 65 18.3 96 96 S 5 7 29.86 1011 10 16 0.00 0.00
1:53 am 01:53 Mostly Cloudy 65 18.3 65 18.3 100 100 S 5 7 29.86 1011 10 16 0.00 0.00
2:33 am 02:33 Mostly Cloudy 66 18.9 65 18.3 96 96 S 7 11 29.87 1012 10 16 0.00 0.00
2:53 am 02:53 Mostly Cloudy 64 17.8 64 17.8 100 100 SSW 5 7 29.88 1012 10 16 0.00 0.00
3:08 am 03:08 Mostly Clear 64 17.8 63 17.2 96 96 SSW 5 7 29.88 1012 10 16 0.00 0.00
3:53 am 03:53 Mostly Cloudy 64 17.8 63 17.2 96 96 Calm 29.88 1012 9 14 0.00 0.00
4:20 am 04:20 Mostly Cloudy 64 17.8 64 17.8 100 100 Calm 29.88 1012 9 14 0.00 0.00
4:49 am 04:49 Cloudy 64 18 64 18 100 100 Calm 29.88 1012 9 14 0.00 0.00
4:53 am 04:53 Cloudy 64 17.8 64 17.8 100 100 Calm 29.88 1012 9 14 0.00 0.00
5:19 am 05:19 Mostly Cloudy 64 17.8 64 17.8 100 100 Calm 29.89 1012 9 14 0.00 0.00
5:41 am 05:41 Mostly Cloudy 63 17.2 63 17.2 100 100 Calm 29.89 1012 7 11 0.00 0.00
5:53 am 05:53 Mostly Clear 63 17.2 63 17.2 100 100 S 5 7 29.89 1012 8 13 0.00 0.00
6:13 am 06:13 Mostly Cloudy with Mist and Fog 63 17.2 63 17.2 100 100 Calm 29.90 1013 4 6 0.00 0.00
6:40 am 06:40 Cloudy 64 17.8 64 17.8 100 100 SSE 3 6 29.90 1013 9 14 0.00 0.00
6:53 am 06:53 Cloudy 64 17.8 64 17.8 100 100 SSE 5 7 29.91 1013 7 11 0.00 0.00
7:53 am 07:53 Mostly Cloudy 64 17.8 63 17.2 96 96 S 5 7 29.92 1013 8 13 0.00 0.00
8:53 am 08:53 Cloudy 66 18.9 65 18.3 96 96 Calm 29.93 1014 8 13 0.00 0.00
9:53 am 09:53 Cloudy 67 19.4 65 18.3 93 93 SSW 5 7 29.94 1014 10 16 0.00 0.00
10:06 am 10:06 Cloudy 68 20 66 18.9 93 93 SSW 8 13 29.95 1014 10 16 0.00 0.00
10:53 am 10:53 Mostly Cloudy 70 21.1 66 18.9 87 87 SSW 5 7 29.95 1014 10 16 0.00 0.00
11:51 am 11:51 Cloudy 72 22 66 19 83 83 SSW 7 11 29.95 1014 8 13 0.00 0.00
11:53 am 11:53 Cloudy 72 22.2 66 18.9 82 82 SSW 9 15 29.96 1015 8 13 0.00 0.00
12:53 pm 12:53 Cloudy 72 22.2 65 18.3 79 79 SW 10 17 29.96 1014 10 16 0.00 0.00
1:53 pm 13:53 Cloudy 73 22.8 65 18.3 76 76 WSW 6 9 29.95 1014 10 16 0.00 0.00
2:53 pm 14:53 Mostly Cloudy 75 23.9 64 17.8 69 69 SSW 7 11 29.93 1014 10 16 0.00 0.00
3:16 pm 15:16 Partly Cloudy with Nearby Thunderstorms 76 24.4 65 18.3 69 69 SW 10 17 29.92 1013 10 16 0.00 0.00
3:53 pm 15:53 Partly Cloudy with Nearby Thunderstorms 75 23.9 65 18.3 71 71 SW 9 15 29.94 1014 10 16 0.00 0.00
4:51 pm 16:51 Mostly Cloudy with Light Rain 68 20 66 19 94 94 Calm 29.96 1015 5 8 0.02 0.51
4:53 pm 16:53 Cloudy with Light Rain 68 20 66 18.9 93 93 Calm 29.96 1014 5 8 0.02 0.51
5:53 pm 17:53 Partly Cloudy 73 22.8 67 19.4 81 81 Calm 29.96 1015 10 16 0.01 0.25
6:53 pm 18:53 Mostly Sunny 71 21.7 66 18.9 84 84 WNW 3 6 29.97 1015 10 16 0.00 0.00
7:53 pm 19:53 Mostly Cloudy 67 19.4 67 19.4 100 100 Calm 29.99 1016 8 13 0.00 0.00
8:53 pm 20:53 Mostly Cloudy 66 18.9 66 18.9 100 100 Calm 30.00 1016 8 13 0.00 0.00
9:53 pm 21:53 Mostly Clear with Fog 64 17.8 64 17.8 100 100 Calm 30.01 1016 7 11 0.00 0.00
10:13 pm 22:13 Mostly Clear with Fog 64 17.8 64 17.8 100 100 Calm 30.01 1016 7 11 0.00 0.00
10:35 pm 22:35 Mostly Cloudy with Fog 64 17.8 64 17.8 100 100 Calm 30.01 1016 0 0 0.00 0.00
10:53 pm 22:53 Mostly Cloudy with Fog 62 16.7 62 16.7 100 100 Calm 30.02 1017 0 0 0.00 0.00
11:34 pm 23:34 Mostly Cloudy with Fog 63 17.2 63 17.2 100 100 N 3 6 30.03 1017 1 1 0.00 0.00
11:53 pm 23:53 Mostly Cloudy with Mist and Fog 62 16.7 62 16.7 100 100 Calm 30.03 1017 1 1 0.00 0.00

Powered by AerisWeather